Regional Weather Roundup
Issued by NWS

Home | Current Version | Previous Version | Graphics & Text | Print | Product List | Glossary On
Versions: 1 2 3 4 5 6 7 8 9 10 11 12 13 14 15 16 17 18 19 20 21 22 23 24 25 26 27 28 29 30 31 32 33 34 35 36 37 38 39 40 41 42 43 44 45 46 47 48 49 50
000
ASUS44 KMEG 060010
RWRTN
TENNESSEE HOURLY STATE WEATHER ROUNDUP
NATIONAL WEATHER SERVICE MEMPHIS TN
600 PM CST THU MAR 05 2015

TNZ002-004-019-021-049-052-054-088>092-060100-
WEST TENNESSEE

CITY           SKY/WX    TMP DP  RH WIND       PRES   REMARKS
MEMPHIS INTL   PTCLDY    28  10  46 N10       30.54R WCI  19
NWS MEMPHIS      N/A     27 N/A N/A MISG        N/A
JACKSON        CLEAR     24  11  57 N10       30.53R WCI  14
DYERSBURG      CLEAR     21   0  39 NE9       30.57S WCI  11
UNION CITY       N/A     19   9  63 NE8       30.54S WCI   9
PARIS          CLEAR     19   7  58 NW6       30.53R WCI  11
LEXINGTON      CLEAR     25   9  50 N9        30.49R WCI  15
SAVANNAH       CLEAR     27  10  50 N9        30.49R WCI  17
$$

TNZ008-025-027-028-033-062-065-066-060100-
NORTH MIDDLE TENNESSEE

CITY           SKY/WX    TMP DP  RH WIND       PRES   REMARKS
NASHVILLE      PTCLDY    23  13  65 N9        30.50R WCI  13
CLARKSVILLE    CLEAR     19   6  57 N10       30.53R WCI   7
SMYRNA         PTCLDY    23  14  68 N5        30.51R WCI  17
COOKEVILLE     MOCLDY    21  18  86 N3        30.43R
CROSSVILLE     CLOUDY    19  15  84 N14G20    30.36R WCI   6
$$

TNZ061-075-076-078-094-096-097-060100-
SOUTH MIDDLE TENNESSEE

CITY           SKY/WX    TMP DP  RH WIND       PRES   REMARKS
FAYETTEVILLE   CLOUDY    21  18  86 N14         N/A  WCI   8
TULLAHOMA      CLOUDY    21  18  86 N7          N/A  WCI  13
WINCHESTER     CLOUDY    21  18  86 N17       30.43R WCI   7
MCMINNVILLE    CLOUDY    21  18  86 N9        30.43R WCI  11
COLUMBIA         N/A     25  16  68 N8        30.46R WCI  16
SHELBYVILLE    PTCLDY    23  18  80 N9        30.47R WCI  13
$$

TNZ017-018-042-046-047-060100-
NORTHEAST TENNESSEE

CITY           SKY/WX    TMP DP  RH WIND       PRES   REMARKS
TRI CITIES     CLOUDY    25  19  78 NW9       30.34R WCI  15
ELIZABETHTON   CLOUDY    25  19  80 W8        30.32R WCI  16
$$

TNZ012-013-036-069-073-074-060100-
CENTRAL EAST TENNESSEE

CITY           SKY/WX    TMP DP  RH WIND       PRES   REMARKS
KNOXVILLE      NOT AVBL
OAK RIDGE      CLOUDY    26  20  77 VRB7      30.42R WCI  18
GATLINBURG     CLOUDY    25  25 100 N6        30.38R WCI  18
MORRISTOWN     MOCLDY    25  25 100 N5        30.36R WCI  19
$$

TNZ083-085-099-060100-
SOUTHEAST TENNESSEE

CITY           SKY/WX    TMP DP  RH WIND       PRES   REMARKS
CHATTANOOGA    CLOUDY    29  21  72 N18       30.37R WCI  16
$$

SKY/WX REPORTED AS FAIR MEANS FEW OR NO CLOUDS BELOW
12 THOUSAND FEET.




USA.gov is the U.S. government's official web portal to all federal, state and local government web resources and services.